Carlsbad, CA

1:21 AM PDT on July 26, 2017 (GMT -0700)
McClellan-Palomar

Weather History for KCRQ - October, 2012

Change the Weather History Date:

Friday, October 19, 2012

  Actual Average Record
Temperature  
Mean Temperature 67 °F -  
Max Temperature 73 °F 69 °F 81 °F (2006)
Min Temperature 61 °F 55 °F 52 °F (1998)
Cooling Degree Days 2    
Growing Degree Days 17 (Base 50)    
Moisture  
Dew Point 62 °F    
Average Humidity 82    
Maximum Humidity 90    
Minimum Humidity 71    
Precipitation  
Precipitation 0.00 in - - ()
Sea Level Pressure  
Sea Level Pressure 29.95 in    
Wind  
Wind Speed 2 mph (WNW)    
Max Wind Speed 8 mph    
Max Gust Speed -    
Visibility 10 miles    
Events      
Averages and records for this station are not official NWS values.
T = Trace of Precipitation, MM = Missing Value Source: NWS Daily Summary

Daily Weather History Graph

Daily Weather History Graph

Search for Another Location

Airport or City:

Trip Planner

Search our weather history database for the weather conditions in past years. The results will help you decide how hot, cold, wet, or windy it might be!

Date:

Astronomy

Oct. 19, 2012 Rise Set
Actual Time 6:57 AM PDT 6:10 PM PDT
Civil Twilight 6:31 AM PDT 6:35 PM PDT
Nautical Twilight 6:03 AM PDT 7:04 PM PDT
Astronomical Twilight 5:34 AM PDT 7:32 PM PDT
Moon 11:33 AM PDT (10/19) 10:03 PM PDT (10/19)
Length of Visible Light 12h 03m
Length of Day
11h 13m
Waxing Crescent, 24% of the Moon is Illuminated
Oct 19
Waxing Crescent
Oct 21
First Quarter
Oct 29
Full
Nov 6
Last Quarter
Nov 13
New

Hourly Weather History & Observations

Time (PDT) Temp. Dew Point Humidity Pressure Visibility Wind Dir Wind Speed Gust Speed Precip Events Conditions
12:42 AM 66.2 °F 62.6 °F 88% 30.00 in 10.0 mi Calm Calm - N/A   Scattered Clouds
12:53 AM 66.9 °F 63.0 °F 87% 30.00 in 10.0 mi Calm Calm - N/A   Mostly Cloudy
1:01 AM 66.2 °F 62.6 °F 88% 30.01 in 10.0 mi Calm Calm - N/A   Scattered Clouds
1:53 AM 66.0 °F 62.1 °F 87% 29.99 in 10.0 mi Calm Calm - N/A   Clear
2:53 AM 64.9 °F 60.1 °F 84% 29.98 in 10.0 mi Calm Calm - N/A   Clear
3:53 AM 64.0 °F 59.0 °F 84% 29.95 in 10.0 mi NE 3.5 mph - N/A   Clear
4:53 AM 64.0 °F 59.0 °F 84% 29.95 in 10.0 mi Calm Calm - N/A   Clear
5:53 AM 64.0 °F 59.0 °F 84% 29.95 in 10.0 mi Calm Calm - N/A   Clear
6:53 AM 61.0 °F 57.9 °F 90% 29.96 in 10.0 mi Calm Calm - N/A   Clear
7:53 AM 64.0 °F 59.0 °F 84% 29.98 in 10.0 mi Calm Calm - N/A   Clear
8:34 AM 66.2 °F 60.8 °F 83% 30.00 in 10.0 mi Calm Calm - N/A   Partly Cloudy
8:49 AM 66.2 °F 60.8 °F 83% 30.00 in 9.0 mi Calm Calm - N/A   Mostly Cloudy
8:53 AM 66.0 °F 61.0 °F 84% 30.00 in 8.0 mi West 4.6 mph - N/A   Mostly Cloudy
9:41 AM 69.8 °F 62.6 °F 78% 30.00 in 8.0 mi WSW 6.9 mph - N/A   Scattered Clouds
9:53 AM 68.0 °F 62.1 °F 81% 29.99 in 8.0 mi West 4.6 mph - N/A   Partly Cloudy
10:53 AM 70.0 °F 62.1 °F 76% 29.98 in 8.0 mi West 5.8 mph - N/A   Partly Cloudy
11:53 AM 73.0 °F 63.0 °F 71% 29.96 in 10.0 mi Variable 6.9 mph - N/A   Clear
12:53 PM 72.0 °F 63.0 °F 73% 29.94 in 10.0 mi West 8.1 mph - N/A   Mostly Cloudy
1:53 PM 71.1 °F 63.0 °F 75% 29.92 in 10.0 mi Variable 5.8 mph - N/A   Mostly Cloudy
2:53 PM 70.0 °F 62.1 °F 76% 29.91 in 10.0 mi WNW 4.6 mph - N/A   Overcast
3:53 PM 69.1 °F 63.0 °F 81% 29.90 in 10.0 mi Variable 3.5 mph - N/A   Overcast
4:53 PM 69.1 °F 63.0 °F 81% 29.89 in 10.0 mi WNW 4.6 mph - N/A   Overcast
5:40 PM 68.0 °F 62.6 °F 83% 29.89 in 10.0 mi Variable 3.5 mph - N/A   Overcast
5:53 PM 68.0 °F 62.1 °F 81% 29.89 in 10.0 mi West 4.6 mph - N/A   Overcast
6:53 PM 68.0 °F 63.0 °F 84% 29.90 in 10.0 mi NNW 3.5 mph - N/A   Overcast
7:53 PM 66.9 °F 62.1 °F 84% 29.90 in 10.0 mi Variable 3.5 mph - N/A   Overcast
8:53 PM 66.9 °F 63.0 °F 87% 29.91 in 10.0 mi NNW 3.5 mph - N/A   Overcast
9:53 PM 66.9 °F 62.1 °F 84% 29.91 in 10.0 mi Calm Calm - N/A   Overcast
10:53 PM 66.9 °F 62.1 °F 84% 29.91 in 10.0 mi Calm Calm - N/A   Overcast
11:53 PM 66.9 °F 62.1 °F 84% 29.90 in 10.0 mi East 3.5 mph - N/A   Overcast